Friday Harbor, WA

9:05 PM PST on November 21, 2019 (GMT -0800)
Friday Harbor

Weather History for KFHR - October, 2019

Change the Weather History Date:

Tuesday, October 22, 2019

  Actual Average Record
Temperature  
Mean Temperature 52 °F -  
Max Temperature 60 °F 53 °F 62 °F (2003)
Min Temperature 45 °F 40 °F 36 °F (2012)
Degree Days  
Heating Degree Days 13    
Growing Degree Days 2 (Base 50)    
Moisture  
Dew Point 48 °F    
Average Humidity 87    
Maximum Humidity 100    
Minimum Humidity 67    
Precipitation  
Precipitation 0.00 in - - ()
Sea Level Pressure  
Sea Level Pressure 30.34 in    
Wind  
Wind Speed 4 mph (SW)    
Max Wind Speed 9 mph    
Max Gust Speed 17 mph    
Visibility 8 miles    
Events      
Averages and records for this station are not official NWS values.
T = Trace of Precipitation, MM = Missing Value Source: NWS Daily Summary

Daily Weather History Graph

Daily Weather History Graph

Search for Another Location

Airport or City:

Astronomy

Oct. 22, 2019 Rise Set
Actual Time 7:42 AM PDT 6:09 PM PDT
Civil Twilight 7:10 AM PDT 6:41 PM PDT
Nautical Twilight 6:33 AM PDT 7:18 PM PDT
Astronomical Twilight 5:57 AM PDT 7:54 PM PDT
Moon 12:18 AM PDT 3:59 PM PDT
Length of Visible Light 11h 31m
Length of Day
10h 27m
Last Quarter, 36% of the Moon is Illuminated
Oct 22
Last Quarter
Oct 27
New
Nov 4
First Quarter
Nov 12
Full
Nov 19
Last Quarter

Hourly Weather History & Observations

Time (PDT) Temp. Dew Point Humidity Pressure Visibility Wind Dir Wind Speed Gust Speed Precip Events Conditions
1:53 AM 52.0 °F 52.0 °F 100% 30.12 in 10.0 mi SSE 3.5 mph - N/A   Mostly Cloudy
2:05 AM 52.0 °F 52.0 °F 100% 30.13 in 10.0 mi Calm Calm - N/A   Scattered Clouds
2:53 AM 53.1 °F 52.0 °F 96% 30.15 in 6.0 mi Variable 3.5 mph - N/A   Clear
3:53 AM 54.0 °F 48.9 °F 83% 30.16 in 10.0 mi Variable 5.8 mph - N/A   Clear
4:53 AM 53.1 °F 48.9 °F 86% 30.18 in 10.0 mi WSW 9.2 mph 17.3 mph N/A   Clear
5:53 AM 52.0 °F 48.9 °F 89% 30.22 in 8.0 mi Variable 4.6 mph - N/A   Clear
6:53 AM 51.1 °F 46.9 °F 86% 30.25 in 6.0 mi West 5.8 mph - N/A   Clear
8:13 AM 48.0 °F 46.9 °F 96% 30.31 in 1.8 mi North 4.6 mph - N/A   Partly Cloudy
8:22 AM 48.0 °F 48.0 °F 100% 30.31 in 0.8 mi North 4.6 mph - N/A   Mostly Cloudy
8:51 AM 48.2 °F 48.2 °F 100% 30.31 in 2.0 mi North 4.6 mph - N/A   Overcast
8:53 AM 48.9 °F 48.9 °F 100% 30.32 in 2.5 mi North 3.5 mph - N/A   Overcast
9:01 AM 48.9 °F 48.9 °F 100% 30.33 in 4.0 mi NE 3.5 mph - N/A   Overcast
9:32 AM 51.1 °F 48.9 °F 92% 30.33 in 9.0 mi SSE 3.5 mph - N/A   Scattered Clouds
9:53 AM 52.0 °F 50.0 °F 93% 30.35 in 9.0 mi SSW 3.5 mph - N/A   Scattered Clouds
10:00 AM 52.0 °F 50.0 °F 93% 30.35 in 9.0 mi South 3.5 mph - N/A   Mostly Cloudy
10:07 AM 53.1 °F 50.0 °F 89% 30.35 in 10.0 mi South 5.8 mph - N/A   Scattered Clouds
10:53 AM 55.0 °F 48.9 °F 80% 30.35 in 8.0 mi WSW 6.9 mph - N/A   Clear
11:53 AM 55.9 °F 48.9 °F 77% 30.38 in 6.0 mi SW 8.1 mph - N/A   Haze
12:53 PM 59.0 °F 48.0 °F 67% 30.40 in 8.0 mi Variable 3.5 mph - N/A   Clear
1:53 PM 59.0 °F 48.0 °F 67% 30.39 in 7.0 mi SSW 6.9 mph - N/A   Partly Cloudy
2:18 PM 59.0 °F 48.0 °F 67% 30.38 in 7.0 mi Variable 4.6 mph - N/A   Mostly Cloudy
2:34 PM 57.9 °F 48.0 °F 70% 30.39 in 6.0 mi SW 8.1 mph - N/A   Haze
2:53 PM 57.9 °F 48.0 °F 70% 30.39 in 6.0 mi SW 8.1 mph - N/A   Haze
3:53 PM 57.0 °F 48.0 °F 72% 30.40 in 5.0 mi WSW 6.9 mph - N/A   Haze
4:53 PM 55.0 °F 46.0 °F 72% 30.42 in 10.0 mi Variable 3.5 mph - N/A   Partly Cloudy
5:53 PM 52.0 °F 46.9 °F 83% 30.43 in 10.0 mi Calm Calm - N/A   Mostly Cloudy
6:53 PM 50.0 °F 48.0 °F 93% 30.43 in 10.0 mi Calm Calm - N/A   Mostly Cloudy
7:53 PM 51.1 °F 46.9 °F 86% 30.44 in 10.0 mi West 3.5 mph - N/A   Overcast
8:53 PM 46.9 °F 45.0 °F 93% 30.44 in 10.0 mi Calm Calm - N/A   Clear
9:53 PM 46.0 °F 45.0 °F 96% 30.45 in 10.0 mi Calm Calm - N/A   Clear
10:53 PM 45.0 °F 44.1 °F 97% 30.46 in 9.0 mi Calm Calm - N/A   Mostly Cloudy
11:53 PM 45.0 °F 45.0 °F 100% 30.47 in 10.0 mi Calm Calm - N/A   Mostly Cloudy